188P/LINEAR-Mueller (2007)

Japanese version
Home page
Updated on March 17, 2010

---------------------------------------------------------------------

* Profile

Designation 188P/2007 J7
Recovery Date May 13 and June 26, 2007
Magnitude 18.2 mag, 18.1 mag
Recoverer R. H. McNaught (Siding Spring), J. V. Scotti (Kitt Peak)

* Pictures

* Orbital Elements

                    Epoch = 2007 Dec.  6.0 TT
     T = 2007 Dec. 16.1419 TT         Peri. =  26.4358
     e = 0.415879                     Node  = 359.1499  2000.0
     q = 2.552135 AU                  Incl. =  10.5462
       a =  4.369188 AU    n = 0.1079202    P =   9.133 years

* Finding Charts

* Magnitudes Graph

        m1 = 12.0 + 5 log d + 6.3 log r

---------------------------------------------------------------------

The orbital elements are printed on IAUC 8853.
The charts are made with StellaNavigator Ver.2.0 for Windows (AstroArts / ASCII).
The magnitudes graphs are made with Comet for Windows.

---------------------------------------------------------------------

Copyright(C) Seiichi Yoshida (comet@aerith.net). All rights reserved.